W7DG Weather Reports


Display with metric or nautical units.
time (UTC)temp
F
wind
direction
speed
MPH
gust
MPH
rain 1hr
in
rain 24hr
in
rain mn
in
humidity
%
barometer
mb
20260506125411 50 207 1.0 1.0 0.00 0.01 0.00 88 1020.7
20260506124810 50 0 0.0 0.0 0.00 0.01 0.00 88 1020.6
20260506123911 50 0 0.0 3.0 0.00 0.01 0.00 88 1020.7
20260506123310 50 0 0.0 0.0 0.00 0.01 0.00 88 1020.5
20260506122411 50 0 0.0 0.0 0.00 0.01 0.00 88 1020.4
20260506121810 50 0 0.0 0.0 0.00 0.01 0.00 88 1020.5
20260506120911 50 0 0.0 0.0 0.00 0.01 0.00 88 1020.3
20260506120309 50 0 0.0 0.0 0.00 0.01 0.00 88 1020.3
20260506115411 50 0 0.0 3.0 0.00 0.01 0.00 88 1020.3
20260506114810 50 0 0.0 3.0 0.00 0.01 0.00 88 1020.3
20260506113911 50 0 0.0 0.0 0.00 0.01 0.00 88 1020.2
20260506113309 50 0 0.0 0.0 0.00 0.01 0.00 88 1020.1
20260506112412 50 0 0.0 7.0 0.00 0.01 0.00 88 1020.2
20260506111809 50 0 0.0 7.0 0.00 0.01 0.00 88 1020.2
20260506110911 50 0 0.0 7.0 0.00 0.01 0.00 88 1020.1
20260506110309 50 0 0.0 7.0 0.00 0.01 0.00 88 1020.1
20260506105411 50 0 0.0 2.0 0.00 0.01 0.00 88 1019.9
20260506104809 50 0 0.0 2.0 0.00 0.01 0.00 88 1019.8
20260506103911 50 0 0.0 2.0 0.00 0.01 0.00 88 1019.8
20260506103309 50 0 0.0 2.0 0.00 0.01 0.00 88 1019.7
20260506102410 50 0 0.0 9.0 0.00 0.01 0.00 88 1019.7
20260506101809 50 0 0.0 9.0 0.00 0.01 0.00 88 1019.6
20260506100911 50 0 0.0 9.0 0.00 0.01 0.00 88 1019.6
20260506100309 51 0 0.0 9.0 0.00 0.01 0.00 88 1019.5
20260506095410 51 0 0.0 7.0 0.00 0.01 0.00 88 1019.5
20260506094809 51 0 0.0 7.0 0.00 0.01 0.00 88 1019.5
20260506093912 51 0 0.0 3.0 0.00 0.01 0.00 88 1019.4
20260506093309 51 0 0.0 1.0 0.00 0.01 0.00 88 1019.4
20260506092411 51 0 0.0 10.0 0.00 0.01 0.00 88 1019.4
20260506091809 51 0 0.0 10.0 0.00 0.01 0.00 88 1019.4
20260506090911 51 247 4.0 9.0 0.00 0.01 0.00 88 1019.3
20260506090309 51 0 0.0 8.0 0.00 0.01 0.00 88 1019.3
20260506085412 51 0 0.0 9.0 0.00 0.01 0.00 88 1019.4
20260506084809 51 0 0.0 9.0 0.00 0.01 0.00 88 1019.4
20260506083910 51 0 0.0 9.0 0.00 0.01 0.00 88 1019.2
20260506083309 51 0 0.0 2.0 0.00 0.01 0.00 88 1019.0
20260506082413 51 0 0.0 10.0 0.00 0.01 0.00 88 1019.1
20260506081810 51 218 2.0 8.0 0.00 0.01 0.00 88 1019.1
20260506080910 51 0 0.0 4.0 0.00 0.01 0.00 88 1018.9
20260506080309 51 0 0.0 0.0 0.00 0.01 0.00 88 1019.0
20260506073309 51 0 0.0 9.0 0.00 0.01 0.00 88 1018.8
20260506072410 51 0 0.0 8.0 0.00 0.01 0.00 88 1018.7
20260506071809 51 0 0.0 4.0 0.00 0.01 0.00 88 1018.7
20260506070910 51 0 0.0 1.0 0.00 0.01 0.00 88 1018.7
20260506070309 51 0 0.0 1.0 0.00 0.01 0.00 88 1018.7
20260506062410 52 0 0.0 0.0 0.00 0.01 0.01 87 1018.5
20260506061809 52 0 0.0 0.0 0.00 0.01 0.01 88 1018.2
20260506060910 52 0 0.0 0.0 0.00 0.01 0.01 88 1018.2
20260506060309 52 0 0.0 0.0 0.00 0.01 0.01 88 1018.2
20260506050911 52 0 0.0 0.0 0.00 0.01 0.01 87 1018.1
20260506050310 52 0 0.0 0.0 0.00 0.01 0.01 87 1018.0
20260506044810 52 269 1.0 1.0 0.00 0.01 0.01 87 1018.0
20260506043912 52 0 0.0 0.0 0.00 0.01 0.01 87 1017.9
20260506043310 52 0 0.0 0.0 0.00 0.01 0.01 87 1017.8
20260506042411 52 0 0.0 4.0 0.00 0.01 0.01 86 1017.8
20260506041810 53 0 0.0 4.0 0.00 0.01 0.01 86 1017.6
20260506040911 53 0 0.0 1.0 0.00 0.01 0.01 86 1017.5
20260506040310 53 0 0.0 1.0 0.00 0.01 0.01 86 1017.4
20260506035411 53 0 0.0 7.0 0.00 0.01 0.01 86 1017.4
20260506034810 53 0 0.0 7.0 0.00 0.01 0.01 86 1017.3
20260506033911 54 0 0.0 7.0 0.00 0.01 0.01 85 1017.2
20260506033310 54 0 0.0 2.0 0.00 0.01 0.01 85 1017.1